Regional Weather Roundup
Issued by NWS

Home | Current Version | Previous Version | Graphics & Text | Print | Product List | Glossary On
Versions: 1 2 3 4 5 6 7 8 9 10 11 12 13 14 15 16 17 18 19 20 21 22 23 24 25 26 27 28 29 30 31 32 33 34 35 36 37 38 39 40 41 42 43 44 45 46 47 48 49 50
918
ASUS45 KBOU 281207
RWRCO

WEATHER ROUNDUP FOR COLORADO
NATIONAL WEATHER SERVICE DENVER/BOULDER CO
500 AM MST TUE FEB 28 2017

NOTE: "FAIR" INDICATES FEW OR NO CLOUDS BELOW 12000 FEET WITH NO
SIGNIFICANT WEATHER AND/OR OBSTRUCTIONS TO VISIBILITY.

COZ001>005-013-030-031-281300-
...NORTHWEST COLORADO...

CITY           SKY/WX    TMP DP  RH WIND       PRES   REMARKS
CRAIG          CLOUDY    18  13  80 CALM      29.77S
HAYDEN         FAIR      16  10  79 SW5       29.75R WCI   9
MEEKER         CLOUDY    22  17  81 NE7       29.73S WCI  13
MOUNT WERNER   NOT AVBL
STEAMBOAT SPGS CLOUDY    15  13  91 CALM      29.73R
WALDEN         NOT AVBL
$$

COZ006>008-011-281300-
...WEST CENTRAL VALLEYS...

CITY           SKY/WX    TMP DP  RH WIND       PRES   REMARKS
GRAND JUNCTION LGT SNOW  30  30 100 S5        29.73S VSB 3/4 WCI  25
MONTROSE       CLOUDY    34  29  82 SE5       29.71R WCI  30
EAGLE          LGT SNOW  23  21  92 W8        29.72R FOG     WCI  14
RIFLE          LGT SNOW  27  26  96 W7        29.74S FOG     WCI  19
DELTA          LGT RAIN  38  34  87 CALM      29.70R
NUCLA          CLOUDY    34  30  86 CALM      29.74R
$$

COZ017>023-064>068-281300-
...SOUTHWEST COLORADO...

CITY           SKY/WX    TMP DP  RH WIND       PRES   REMARKS
DURANGO        LGT SNOW  31  29  92 SW10      29.71S VSB 1   WCI  22
CORTEZ         LGT SNOW  32  32 100 CALM      29.75R VSB 1
PAGOSA SPRINGS LGT SNOW  32  32 100 S7        29.70F VSB 1   WCI  25
TELLURIDE      LGT SNOW  24  21  87 W8        29.72R WCI  15
WOLF CREEK PAS CLOUDY    18  18 100 S26G43    29.69F WCI  -1
$$

COZ009-010-012-014-032>034-037-058>063-281300-
...CENTRAL COLORADO...

CITY           SKY/WX    TMP DP  RH WIND       PRES   REMARKS
ASPEN          LGT SNOW  24  22  91 N12       29.64R FOG     WCI  13
BUENA VISTA    CLOUDY    28  26  91 SE6       29.65S WCI  21
COPPER MTN     LGT SNOW  19  10  68 MISG      29.62S
BERTHOUD PASS  LGT SNOW  10   0  61 W13G22    29.60S WCI  -5
COTTONWOOD PAS LGT SNOW  27  21  80 W7        29.65S WCI  19
GUNNISON       FAIR      27  23  85 SW8       29.68S WCI  19
KREMMLING      LGT SNOW  23  21  93 CALM      29.71R VSB 1
LEADVILLE      LGT SNOW  18  15  88 CALM      29.61F FOG
MONARCH PASS   CLOUDY    14  10  85 W24G35    29.72F WCI  -5
SALIDA         CLOUDY    32  29  89 CALM      29.72F
SUNLIGHT       NOT AVBL
WILKERSON PASS LGT SNOW  18  16  93 SW14G20   29.66S VSB 3/4 WCI   4
$$

COZ069>075-281300-
...SAN LUIS VALLEY/SANGRE DE CRISTO MOUNTAINS...

CITY           SKY/WX    TMP DP  RH WIND       PRES   REMARKS
ALAMOSA        CLOUDY    32  30  92 S20       29.66F WCI  20
LA VETA PASS   LGT SNOW  27  23  86 S26G43    29.66R VSB 1   WCI  11
SAGUACHE       LGT SNOW  28  27  93 NW8       29.67F WCI  20
$$

COZ035-036-038>040-281300-
...NORTHERN COLORADO FRONT RANGE...

CITY           SKY/WX    TMP DP  RH WIND       PRES   REMARKS
DENVER INTL AP MOCLDY    23  16  74 S10       29.68S WCI  12
DMNS CITY PARK   N/A     29  18  61 S5        29.70S WCI  24
AURORA         MOCLDY    22  17  80 S6        29.68F WCI  15
FRONT RANGE AP FAIR      25  19  80 S6        29.69R WCI  18
ERIE MUNI ARPT FAIR      29  20  68 S6        29.69R WCI  23
BOULDER MUN AP FAIR      32  21  64 SE7       29.68R WCI  26
CENTENNIAL     FAIR      25  17  72 S8        29.67F WCI  16
BROOMFIELD     FAIR      30  19  64 S8        29.68R WCI  23
FORT COLLINS   FAIR      26  21  81 S9        29.69S WCI  17
LONGMONT       NOT AVBL
$$

COZ041-046-047-076>085-087-088-281300-
...PIKES PEAK/PALMER DIVIDE AND SOUTHERN FOOTHILLS...

CITY           SKY/WX    TMP DP  RH WIND       PRES   REMARKS
COLO. SPRINGS  FAIR      27  14  58 N10       29.67S WCI  17
A. F. ACADEMY  CLOUDY    23  14  67 N9        29.66S WCI  13
SCHRIEVER AFB  FAIR      23  15  72 N14       29.66S WCI  10
ELLICOTT       FAIR     N/A N/A N/A NE20G25   29.63S
FALCON         FAIR      22  12  64 N9        29.66F WCI  12
FORT CARSON    FAIR      27  15  61 N12       29.65F WCI  17
LIMON          FAIR     N/A N/A N/A N8        29.69S
MONUMENT HILL  FAIR      19  14  79 E5        29.67S WCI  13
TRINIDAD       FAIR      45  26  47 SW25G37   29.60F
$$

COZ042>045-048>051-090-091-281300-
...NORTHEAST COLORADO...

CITY           SKY/WX    TMP DP  RH WIND       PRES   REMARKS
GREELEY ARPT   FAIR      27  20  75 SW3       29.71S
AKRON          FAIR      20  16  84 W5        29.70R WCI  13
BURLINGTON     FAIR      25  20  81 NW12      29.69F WCI  14
WRAY           NOT AVBL
STERLING       FAIR      21  19  93 S3        29.72R
HOLYOKE        FAIR      30  23  74 NW7       29.72R WCI  23
FORT MORGAN    FAIR      24  22  93 CALM      29.71F
$$

COZ086-089-092>099-281300-
...SOUTHEAST COLORADO...

CITY           SKY/WX    TMP DP  RH WIND       PRES   REMARKS
PUEBLO         FAIR      31  15  52 VRB3      29.67R
LA JUNTA       FAIR      29  19  66 NE12      29.67R WCI  19
LAMAR          FAIR      29  20  69 NE6       29.67R WCI  23
SPRINGFIELD      N/A     41  27  57 SW6       29.66F
$$




USA.gov is the U.S. government's official web portal to all federal, state and local government web resources and services.